Location: ?
(35.4996°N, 139.3166°E)
Time: 03:56:26
(UTC+00:00)

UNK - Pass Details

Date: 18 April 2024
Orbit: 661 x 679 km, 98.3° (Epoch: 20 May)

Event Time Altitude Azimuth Distance (km) Brightness Sun altitude
Exits shadow 18:25:06 34° 282° (WNW) 1,100 4.4 -19.6°
Drops below altitude 10° 18:28:38 10° 329° (NNW) 2,105 6.3 -19.0°
Sets 18:31:02 0° 338° (NNW) 3,026 7.2 -18.6°
